Time,TemperatureF,DewpointF,PressureIn,WindDirection,WindDirectionDegrees,WindSpeedMPH,WindSpeedGustMPH,Humidity,HourlyPrecipIn,Conditions,Clouds,dailyrainin,SoftwareType,DateUTC
2013-07-28 00:00:00,62.0,0.0,29.82,WSW,258,0.0,1.0,0,0.00,,OVC095,0.49,VWS V14.01,2013-07-28 04:00:00,
2013-07-28 00:01:00,61.9,0.0,29.82,WSW,258,0.0,1.0,0,0.00,,OVC095,0.49,VWS V14.01,2013-07-28 04:01:00,
2013-07-28 00:03:00,61.9,0.0,29.82,WSW,257,0.0,1.0,0,0.00,,OVC095,0.49,VWS V14.01,2013-07-28 04:03:00,
2013-07-28 00:09:00,61.9,0.0,29.82,WSW,258,0.0,1.0,0,0.00,,OVC095,0.00,VWS V14.01,2013-07-28 04:09:00,
2013-07-28 00:10:00,62.2,0.0,29.82,WSW,257,0.0,2.0,0,0.00,,CLR,0.00,VWS V14.01,2013-07-28 04:10:00,
2013-07-28 00:14:00,62.1,0.0,29.82,WSW,258,1.0,1.0,0,0.00,,OVC095,0.00,VWS V14.01,2013-07-28 04:14:00,
2013-07-28 00:19:00,62.2,0.0,29.82,WSW,258,0.0,1.0,0,0.00,,OVC095,0.00,VWS V14.01,2013-07-28 04:19:00,
2013-07-28 00:20:00,61.8,0.0,29.81,WSW,258,0.0,2.0,0,0.00,,CLR,0.00,VWS V14.01,2013-07-28 04:20:00,
2013-07-28 00:24:00,62.0,0.0,29.81,WSW,257,0.0,1.0,0,0.00,,OVC095,0.00,VWS V14.01,2013-07-28 04:24:00,
2013-07-28 00:29:00,61.8,0.0,29.81,WSW,258,0.0,1.0,0,0.00,,OVC095,0.00,VWS V14.01,2013-07-28 04:29:00,
2013-07-28 00:30:00,61.8,0.0,29.81,WSW,257,0.0,1.0,0,0.00,,CLR,0.00,VWS V14.01,2013-07-28 04:30:00,
2013-07-28 00:34:00,61.7,0.0,29.81,WSW,257,0.0,1.0,0,0.00,,OVC120,0.00,VWS V14.01,2013-07-28 04:34:00,
2013-07-28 00:39:00,61.8,0.0,29.81,WSW,258,0.0,1.0,0,0.00,,OVC120,0.00,VWS V14.01,2013-07-28 04:39:00,
2013-07-28 00:40:00,61.7,0.0,29.81,WSW,258,0.0,2.0,0,0.00,,CLR,0.00,VWS V14.01,2013-07-28 04:40:00,
2013-07-28 00:44:00,61.8,0.0,29.81,WSW,258,1.0,2.0,0,0.00,,OVC120,0.00,VWS V14.01,2013-07-28 04:44:00,
2013-07-28 00:49:00,61.7,0.0,29.81,WSW,257,0.0,0.0,0,0.00,,OVC120,0.00,VWS V14.01,2013-07-28 04:49:00,
2013-07-28 00:50:00,61.7,0.0,29.81,WSW,258,0.0,1.0,0,0.00,,CLR,0.00,VWS V14.01,2013-07-28 04:50:00,
2013-07-28 00:54:00,61.7,0.0,29.81,WSW,258,0.0,0.0,0,0.00,,OVC120,0.00,VWS V14.01,2013-07-28 04:54:00,
2013-07-28 00:59:00,61.7,0.0,29.81,WSW,258,0.0,1.0,0,0.00,,OVC120,0.00,VWS V14.01,2013-07-28 04:59:00,
2013-07-28 01:00:00,61.4,0.0,29.81,WSW,257,1.0,2.0,0,0.00,,CLR,0.00,VWS V14.01,2013-07-28 05:00:00,
2013-07-28 01:04:00,61.5,0.0,29.81,WSW,258,0.0,1.0,0,0.00,,OVC120,0.00,VWS V14.01,2013-07-28 05:04:00,
2013-07-28 01:09:00,61.4,0.0,29.81,WSW,257,0.0,1.0,0,0.00,,OVC120,0.00,VWS V14.01,2013-07-28 05:09:00,
2013-07-28 01:10:00,61.4,0.0,29.81,WSW,258,0.0,2.0,0,0.00,,CLR,0.00,VWS V14.01,2013-07-28 05:10:00,
2013-07-28 01:14:00,61.5,0.0,29.81,WSW,258,0.0,2.0,0,0.00,,OVC120,0.00,VWS V14.01,2013-07-28 05:14:00,
2013-07-28 01:19:00,61.4,0.0,29.81,WSW,258,0.0,0.0,0,0.00,,OVC120,0.00,VWS V14.01,2013-07-28 05:19:00,
2013-07-28 01:20:00,61.6,0.0,29.80,WSW,258,0.0,0.0,0,0.00,,CLR,0.00,VWS V14.01,2013-07-28 05:20:00,
2013-07-28 01:24:00,61.5,0.0,29.80,WSW,258,0.0,0.0,0,0.00,,OVC120,0.00,VWS V14.01,2013-07-28 05:24:00,
2013-07-28 01:29:00,61.6,0.0,29.80,WSW,258,0.0,0.0,0,0.00,,OVC120,0.00,VWS V14.01,2013-07-28 05:29:00,
2013-07-28 01:30:00,61.3,0.0,29.80,WSW,258,0.0,1.0,0,0.00,,CLR,0.00,VWS V14.01,2013-07-28 05:30:00,
2013-07-28 01:34:00,61.5,0.0,29.80,WSW,257,0.0,1.0,0,0.00,,BKN090,0.00,VWS V14.01,2013-07-28 05:34:00,
2013-07-28 01:39:00,61.3,0.0,29.80,WSW,257,0.0,0.0,0,0.00,,BKN090,0.00,VWS V14.01,2013-07-28 05:39:00,
2013-07-28 01:40:00,61.3,0.0,29.80,WSW,257,0.0,0.0,0,0.00,,CLR,0.00,VWS V14.01,2013-07-28 05:40:00,
2013-07-28 01:44:00,61.3,0.0,29.80,WSW,258,0.0,0.0,0,0.00,,BKN090,0.00,VWS V14.01,2013-07-28 05:44:00,
2013-07-28 01:49:00,61.3,0.0,29.80,WSW,258,0.0,0.0,0,0.00,,BKN090,0.00,VWS V14.01,2013-07-28 05:49:00,
2013-07-28 01:50:00,61.3,0.0,29.79,WSW,258,0.0,1.0,0,0.00,,CLR,0.00,VWS V14.01,2013-07-28 05:50:00,
2013-07-28 01:54:00,61.4,0.0,29.79,WSW,258,0.0,1.0,0,0.00,,BKN090,0.00,VWS V14.01,2013-07-28 05:54:00,
2013-07-28 01:59:00,61.3,0.0,29.79,WSW,258,0.0,0.0,0,0.00,,BKN090,0.00,VWS V14.01,2013-07-28 05:59:00,
2013-07-28 02:00:00,61.2,0.0,29.79,WSW,257,0.0,2.0,0,0.00,,CLR,0.00,VWS V14.01,2013-07-28 06:00:00,
2013-07-28 02:04:00,61.1,0.0,29.79,WSW,258,0.0,1.0,0,0.00,,BKN090,0.00,VWS V14.01,2013-07-28 06:04:00,
2013-07-28 02:09:00,61.1,0.0,29.79,WSW,258,1.0,1.0,0,0.00,,BKN090,0.00,VWS V14.01,2013-07-28 06:09:00,
2013-07-28 02:10:00,61.0,0.0,29.79,WSW,258,0.0,2.0,0,0.00,,CLR,0.00,VWS V14.01,2013-07-28 06:10:00,
2013-07-28 02:14:00,60.9,0.0,29.79,WSW,258,0.0,1.0,0,0.00,,BKN090,0.00,VWS V14.01,2013-07-28 06:14:00,
2013-07-28 02:19:00,61.0,0.0,29.79,WSW,257,0.0,1.0,0,0.00,,BKN090,0.00,VWS V14.01,2013-07-28 06:19:00,
2013-07-28 02:20:00,61.0,0.0,29.80,WSW,258,0.0,1.0,0,0.00,,CLR,0.00,VWS V14.01,2013-07-28 06:20:00,
2013-07-28 02:24:00,61.0,0.0,29.80,WSW,258,0.0,1.0,0,0.00,,BKN090,0.00,VWS V14.01,2013-07-28 06:24:00,
2013-07-28 02:29:00,61.0,0.0,29.80,WSW,257,0.0,0.0,0,0.00,,BKN090,0.00,VWS V14.01,2013-07-28 06:29:00,
2013-07-28 02:30:00,61.0,0.0,29.80,WSW,258,0.0,0.0,0,0.00,,CLR,0.00,VWS V14.01,2013-07-28 06:30:00,
2013-07-28 02:34:00,61.0,0.0,29.80,WSW,257,0.0,0.0,0,0.00,,BKN028,0.00,VWS V14.01,2013-07-28 06:34:00,
2013-07-28 02:39:00,61.0,0.0,29.80,WSW,257,0.0,0.0,0,0.00,,BKN028,0.00,VWS V14.01,2013-07-28 06:39:00,
2013-07-28 02:40:00,60.9,0.0,29.80,WSW,257,0.0,0.0,0,0.00,,CLR,0.00,VWS V14.01,2013-07-28 06:40:00,
2013-07-28 02:44:00,61.0,0.0,29.80,WSW,257,0.0,0.0,0,0.00,,BKN028,0.00,VWS V14.01,2013-07-28 06:44:00,
2013-07-28 02:49:00,61.0,0.0,29.80,WSW,258,0.0,0.0,0,0.00,,BKN028,0.00,VWS V14.01,2013-07-28 06:49:00,
2013-07-28 02:50:00,61.2,0.0,29.78,WSW,257,0.0,1.0,0,0.00,,CLR,0.00,VWS V14.01,2013-07-28 06:50:00,
2013-07-28 02:54:00,61.1,0.0,29.78,WSW,258,0.0,1.0,0,0.00,,BKN028,0.00,VWS V14.01,2013-07-28 06:54:00,
2013-07-28 02:59:00,61.2,0.0,29.78,WSW,258,0.0,0.0,0,0.00,,BKN028,0.00,VWS V14.01,2013-07-28 06:59:00,
2013-07-28 03:00:00,61.0,0.0,29.79,WSW,257,1.0,2.0,0,0.00,,CLR,0.00,VWS V14.01,2013-07-28 07:00:00,
2013-07-28 03:04:00,61.3,0.0,29.78,WSW,257,1.0,1.0,0,0.00,,OVC110,0.00,VWS V14.01,2013-07-28 07:04:00,
2013-07-28 03:09:00,60.9,0.0,29.79,WSW,258,0.0,2.0,0,0.00,,OVC110,0.00,VWS V14.01,2013-07-28 07:09:00,
2013-07-28 03:10:00,60.8,0.0,29.79,WSW,258,0.0,2.0,0,0.00,,CLR,0.00,VWS V14.01,2013-07-28 07:10:00,
2013-07-28 03:14:00,60.7,0.0,29.79,WSW,257,1.0,2.0,0,0.00,,OVC110,0.00,VWS V14.01,2013-07-28 07:14:00,
2013-07-28 03:19:00,60.8,0.0,29.79,WSW,257,0.0,0.0,0,0.00,,OVC110,0.00,VWS V14.01,2013-07-28 07:19:00,
2013-07-28 03:20:00,60.8,0.0,29.80,WSW,257,0.0,0.0,0,0.00,,CLR,0.00,VWS V14.01,2013-07-28 07:20:00,
2013-07-28 03:24:00,60.9,0.0,29.80,WSW,258,0.0,0.0,0,0.00,,OVC110,0.00,VWS V14.01,2013-07-28 07:24:00,
2013-07-28 03:29:00,60.8,0.0,29.80,WSW,258,0.0,0.0,0,0.00,,OVC110,0.00,VWS V14.01,2013-07-28 07:29:00,
2013-07-28 03:30:00,60.9,0.0,29.80,WSW,258,1.0,1.0,0,0.00,,CLR,0.00,VWS V14.01,2013-07-28 07:30:00,
2013-07-28 03:34:00,60.8,0.0,29.80,WSW,258,0.0,0.0,0,0.00,,OVC080,0.00,VWS V14.01,2013-07-28 07:34:00,
2013-07-28 03:39:00,60.9,0.0,29.80,WSW,258,1.0,2.0,0,0.00,,OVC080,0.00,VWS V14.01,2013-07-28 07:39:00,
2013-07-28 03:40:00,60.5,0.0,29.80,WSW,258,0.0,2.0,0,0.00,,CLR,0.00,VWS V14.01,2013-07-28 07:40:00,
2013-07-28 03:44:00,60.7,0.0,29.80,WSW,258,0.0,2.0,0,0.00,,OVC080,0.00,VWS V14.01,2013-07-28 07:44:00,
2013-07-28 03:49:00,60.5,0.0,29.80,WSW,258,0.0,1.0,0,0.00,,OVC080,0.00,VWS V14.01,2013-07-28 07:49:00,
2013-07-28 03:50:00,60.6,0.0,29.80,WSW,257,0.0,2.0,0,0.00,,CLR,0.00,VWS V14.01,2013-07-28 07:50:00,
2013-07-28 03:54:00,60.6,0.0,29.80,WSW,257,1.0,2.0,0,0.00,,OVC080,0.00,VWS V14.01,2013-07-28 07:54:00,
2013-07-28 03:59:00,60.5,0.0,29.80,WSW,258,1.0,2.0,0,0.00,,OVC080,0.00,VWS V14.01,2013-07-28 07:59:00,
2013-07-28 04:00:00,60.6,0.0,29.81,WSW,258,1.0,2.0,0,0.00,,CLR,0.00,VWS V14.01,2013-07-28 08:00:00,
2013-07-28 04:04:00,60.5,0.0,29.80,WSW,257,0.0,2.0,0,0.00,,OVC080,0.00,VWS V14.01,2013-07-28 08:04:00,
2013-07-28 04:09:00,60.7,0.0,29.81,WSW,258,2.0,2.0,0,0.00,,OVC080,0.00,VWS V14.01,2013-07-28 08:09:00,
2013-07-28 04:10:00,61.0,0.0,29.81,WSW,258,0.0,2.0,0,0.01,,CLR,0.01,VWS V14.01,2013-07-28 08:10:00,
2013-07-28 04:14:00,60.9,0.0,29.81,WSW,258,0.0,2.0,0,0.01,,OVC080,0.01,VWS V14.01,2013-07-28 08:14:00,
2013-07-28 04:19:00,61.1,0.0,29.81,WSW,258,0.0,1.0,0,0.01,,OVC080,0.01,VWS V14.01,2013-07-28 08:19:00,
2013-07-28 04:20:00,61.3,0.0,29.80,WSW,258,0.0,2.0,0,0.01,,CLR,0.01,VWS V14.01,2013-07-28 08:20:00,
2013-07-28 04:25:00,61.2,0.0,29.80,WSW,258,0.0,2.0,0,0.01,,OVC080,0.01,VWS V14.01,2013-07-28 08:25:00,
2013-07-28 04:30:00,61.2,0.0,29.80,WSW,258,0.0,0.0,0,0.01,,OVC080,0.01,VWS V14.01,2013-07-28 08:30:00,
2013-07-28 04:35:00,61.3,0.0,29.80,WSW,257,0.0,0.0,0,0.01,,OVC016,0.01,VWS V14.01,2013-07-28 08:35:00,
2013-07-28 04:40:00,61.1,0.0,29.80,WSW,258,1.0,2.0,0,0.01,,OVC016,0.01,VWS V14.01,2013-07-28 08:40:00,
2013-07-28 04:45:00,60.8,0.0,29.80,WSW,258,3.0,3.0,0,0.01,,OVC016,0.01,VWS V14.01,2013-07-28 08:45:00,
2013-07-28 04:50:00,60.6,0.0,29.80,WNW,289,5.0,10.0,0,0.01,,OVC016,0.01,VWS V14.01,2013-07-28 08:50:00,
2013-07-28 04:55:00,60.5,0.0,29.80,WNW,284,5.0,12.0,0,0.01,,OVC016,0.01,VWS V14.01,2013-07-28 08:55:00,
2013-07-28 05:00:00,60.6,0.0,29.80,WNW,298,4.0,7.0,0,0.01,,OVC016,0.01,VWS V14.01,2013-07-28 09:00:00,
2013-07-28 05:05:00,60.6,0.0,29.80,WNW,285,1.0,7.0,0,0.01,,OVC016,0.01,VWS V14.01,2013-07-28 09:05:00,
2013-07-28 05:10:00,60.6,0.0,29.80,West,280,4.0,9.0,0,0.01,,OVC016,0.01,VWS V14.01,2013-07-28 09:10:00,
2013-07-28 05:15:00,60.6,0.0,29.80,WSW,252,6.0,9.0,0,0.02,,OVC016,0.02,VWS V14.01,2013-07-28 09:15:00,
2013-07-28 05:20:00,60.6,0.0,29.80,West,277,0.0,1.0,0,0.01,,OVC016,0.02,VWS V14.01,2013-07-28 09:20:00,
2013-07-28 05:25:00,60.5,0.0,29.81,West,277,1.0,2.0,0,0.01,,OVC016,0.02,VWS V14.01,2013-07-28 09:25:00,
2013-07-28 05:30:00,60.4,0.0,29.81,West,277,0.0,1.0,0,0.01,,OVC016,0.02,VWS V14.01,2013-07-28 09:30:00,
2013-07-28 05:35:00,60.3,0.0,29.81,West,276,1.0,3.0,0,0.01,,BKN070,0.02,VWS V14.01,2013-07-28 09:35:00,
2013-07-28 05:40:00,60.1,0.0,29.81,WSW,238,3.0,4.0,0,0.01,,BKN070,0.02,VWS V14.01,2013-07-28 09:40:00,
2013-07-28 05:45:00,60.0,0.0,29.81,West,280,3.0,5.0,0,0.01,,BKN070,0.02,VWS V14.01,2013-07-28 09:45:00,
2013-07-28 05:50:00,60.0,0.0,29.81,SW,229,4.0,5.0,0,0.03,,BKN070,0.04,VWS V14.01,2013-07-28 09:50:00,
2013-07-28 05:55:00,59.5,0.0,29.85,South,188,0.0,10.0,0,0.04,,BKN070,0.05,VWS V14.01,2013-07-28 09:55:00,
2013-07-28 06:00:00,58.9,0.0,29.85,SSE,165,1.0,9.0,0,0.06,,BKN070,0.07,VWS V14.01,2013-07-28 10:00:00,
2013-07-28 06:05:00,58.6,0.0,29.85,SSW,201,0.0,9.0,0,0.07,,BKN070,0.08,VWS V14.01,2013-07-28 10:05:00,
2013-07-28 06:10:00,58.3,0.0,29.84,WSW,250,0.0,2.0,0,0.07,,BKN070,0.08,VWS V14.01,2013-07-28 10:10:00,
2013-07-28 06:15:00,58.2,0.0,29.84,ESE,117,2.0,3.0,0,0.08,,BKN070,0.09,VWS V14.01,2013-07-28 10:15:00,
2013-07-28 06:20:00,58.0,0.0,29.84,ESE,121,2.0,4.0,0,0.07,,BKN070,0.09,VWS V14.01,2013-07-28 10:20:00,
2013-07-28 06:25:00,57.9,0.0,29.84,East,95,0.0,4.0,0,0.07,,BKN070,0.09,VWS V14.01,2013-07-28 10:25:00,
2013-07-28 06:30:00,57.8,0.0,29.84,East,95,0.0,1.0,0,0.07,,BKN070,0.09,VWS V14.01,2013-07-28 10:30:00,
2013-07-28 06:35:00,57.5,0.0,29.84,ESE,105,2.0,3.0,0,0.08,,-RA,0.10,VWS V14.01,2013-07-28 10:35:00,
2013-07-28 06:40:00,57.4,0.0,29.83,East,101,0.0,1.0,0,0.08,,-RA,0.10,VWS V14.01,2013-07-28 10:40:00,
2013-07-28 06:45:00,57.2,0.0,29.83,South,189,0.0,2.0,0,0.08,,-RA,0.10,VWS V14.01,2013-07-28 10:45:00,
2013-07-28 06:50:00,57.0,0.0,29.83,South,188,0.0,0.0,0,0.07,,-RA,0.10,VWS V14.01,2013-07-28 10:50:00,
2013-07-28 06:55:00,57.0,0.0,29.84,South,189,0.0,0.0,0,0.07,,-RA,0.10,VWS V14.01,2013-07-28 10:55:00,
2013-07-28 07:00:00,57.1,0.0,29.84,South,188,0.0,0.0,0,0.04,,-RA,0.10,VWS V14.01,2013-07-28 11:00:00,
2013-07-28 07:05:00,57.2,0.0,29.84,South,189,0.0,0.0,0,0.04,,-RA,0.10,VWS V14.01,2013-07-28 11:05:00,
2013-07-28 07:10:00,57.4,0.0,29.84,WSW,256,1.0,3.0,0,0.02,,CLR,0.10,VWS V14.01,2013-07-28 11:10:00,
2013-07-28 07:11:00,57.3,0.0,29.84,South,189,1.0,2.0,0,0.02,,-RA,0.10,VWS V14.01,2013-07-28 11:11:00,
2013-07-28 07:15:00,57.3,0.0,29.84,SSW,194,2.0,3.0,0,0.02,,-RA,0.10,VWS V14.01,2013-07-28 11:15:00,
2013-07-28 07:20:00,57.5,0.0,29.84,West,259,1.0,3.0,0,0.01,,-RA,0.10,VWS V14.01,2013-07-28 11:20:00,
2013-07-28 07:26:00,57.5,0.0,29.85,WSW,252,1.0,4.0,0,0.01,,-RA,0.10,VWS V14.01,2013-07-28 11:26:00,
2013-07-28 07:30:00,57.4,0.0,29.85,West,267,0.0,4.0,0,0.01,,CLR,0.10,VWS V14.01,2013-07-28 11:30:00,
2013-07-28 07:31:00,57.5,0.0,29.85,WSW,252,0.0,3.0,0,0.01,,-RA,0.10,VWS V14.01,2013-07-28 11:31:00,
2013-07-28 07:36:00,57.5,0.0,29.85,West,267,0.0,4.0,0,0.01,,-RA,0.10,VWS V14.01,2013-07-28 11:36:00,
2013-07-28 07:40:00,57.5,0.0,29.85,West,267,1.0,4.0,0,0.00,,CLR,0.10,VWS V14.01,2013-07-28 11:40:00,
2013-07-28 07:41:00,57.4,0.0,29.85,West,267,0.0,3.0,0,0.00,,-RA,0.10,VWS V14.01,2013-07-28 11:41:00,
2013-07-28 07:46:00,57.4,0.0,29.85,West,267,0.0,3.0,0,0.00,,-RA,0.10,VWS V14.01,2013-07-28 11:46:00,
2013-07-28 07:50:00,57.8,0.0,29.84,West,267,0.0,4.0,0,0.00,,CLR,0.10,VWS V14.01,2013-07-28 11:50:00,
2013-07-28 07:51:00,57.6,0.0,29.85,West,267,2.0,3.0,0,0.00,,-RA,0.10,VWS V14.01,2013-07-28 11:51:00,
2013-07-28 07:56:00,57.6,0.0,29.84,West,267,2.0,4.0,0,0.00,,-RA,0.10,VWS V14.01,2013-07-28 11:56:00,
2013-07-28 08:00:00,57.7,0.0,29.85,SW,236,4.0,4.0,0,0.00,,,0.10,VWS V14.01,2013-07-28 12:00:00,
2013-07-28 08:01:00,58.1,0.0,29.84,West,267,0.0,1.0,0,0.00,,-RA,0.10,VWS V14.01,2013-07-28 12:01:00,
2013-07-28 08:06:00,57.8,0.0,29.84,WSW,248,0.0,4.0,0,0.00,,-RA,0.10,VWS V14.01,2013-07-28 12:06:00,
2013-07-28 08:10:00,57.7,0.0,29.85,WSW,238,2.0,5.0,0,0.00,,CLR,0.10,VWS V14.01,2013-07-28 12:10:00,
2013-07-28 08:11:00,57.6,0.0,29.85,WSW,238,3.0,5.0,0,0.00,,-RA,0.10,VWS V14.01,2013-07-28 12:11:00,
2013-07-28 08:16:00,57.5,0.0,29.85,WSW,238,2.0,5.0,0,0.00,,-RA,0.10,VWS V14.01,2013-07-28 12:16:00,
2013-07-28 08:20:00,58.4,0.0,29.85,WSW,239,0.0,4.0,0,0.00,,,0.10,VWS V14.01,2013-07-28 12:20:00,
2013-07-28 08:21:00,58.0,0.0,29.85,WSW,238,0.0,3.0,0,0.00,,-RA,0.10,VWS V14.01,2013-07-28 12:21:00,
2013-07-28 08:26:00,58.2,0.0,29.85,WSW,238,2.0,4.0,0,0.00,,-RA,0.10,VWS V14.01,2013-07-28 12:26:00,
2013-07-28 08:30:00,58.9,0.0,29.85,WSW,240,0.0,6.0,0,0.00,,CLR,0.10,VWS V14.01,2013-07-28 12:30:00,
2013-07-28 08:31:00,58.5,0.0,29.85,West,273,1.0,6.0,0,0.00,,OVC100,0.10,VWS V14.01,2013-07-28 12:31:00,
2013-07-28 08:36:00,58.9,0.0,29.85,SW,230,3.0,6.0,0,0.00,,OVC100,0.10,VWS V14.01,2013-07-28 12:36:00,
2013-07-28 08:40:00,59.4,0.0,29.85,SW,236,2.0,8.0,0,0.00,,CLR,0.10,VWS V14.01,2013-07-28 12:40:00,
2013-07-28 08:42:00,59.1,0.0,29.85,SSW,211,5.0,8.0,0,0.00,,OVC100,0.10,VWS V14.01,2013-07-28 12:42:00,
2013-07-28 08:47:00,59.4,0.0,29.85,SW,234,5.0,8.0,0,0.00,,OVC100,0.10,VWS V14.01,2013-07-28 12:47:00,
2013-07-28 08:50:00,60.0,0.0,29.85,SW,225,6.0,10.0,0,0.00,,CLR,0.10,VWS V14.01,2013-07-28 12:50:00,
2013-07-28 08:52:00,59.7,0.0,29.85,SW,233,8.0,8.0,0,0.00,,OVC100,0.10,VWS V14.01,2013-07-28 12:52:00,
2013-07-28 08:57:00,60.0,0.0,29.85,SW,226,7.0,8.0,0,0.00,,OVC100,0.10,VWS V14.01,2013-07-28 12:57:00,
2013-07-28 09:00:00,60.9,0.0,29.85,WSW,254,0.0,9.0,0,0.00,,,0.10,VWS V14.01,2013-07-28 13:00:00,
2013-07-28 09:02:00,60.3,0.0,29.85,SW,223,6.0,9.0,0,0.00,,OVC100,0.10,VWS V14.01,2013-07-28 13:02:00,
2013-07-28 09:07:00,60.8,0.0,29.85,WSW,253,6.0,9.0,0,0.00,,OVC100,0.10,VWS V14.01,2013-07-28 13:07:00,
2013-07-28 09:10:00,61.2,0.0,29.85,SSW,200,4.0,12.0,0,0.00,,CLR,0.10,VWS V14.01,2013-07-28 13:10:00,
2013-07-28 09:12:00,61.1,0.0,29.85,SSE,165,1.0,9.0,0,0.00,,OVC100,0.10,VWS V14.01,2013-07-28 13:12:00,
2013-07-28 09:17:00,61.2,0.0,29.85,SW,227,0.0,12.0,0,0.00,,OVC100,0.10,VWS V14.01,2013-07-28 13:17:00,
2013-07-28 09:20:00,62.0,0.0,29.85,WSW,252,4.0,10.0,0,0.00,,CLR,0.10,VWS V14.01,2013-07-28 13:20:00,
2013-07-28 09:22:00,61.6,0.0,29.85,SSE,161,0.0,7.0,0,0.00,,OVC100,0.10,VWS V14.01,2013-07-28 13:22:00,
2013-07-28 09:27:00,62.0,0.0,29.85,WSW,254,5.0,10.0,0,0.00,,OVC100,0.10,VWS V14.01,2013-07-28 13:27:00,
2013-07-28 09:30:00,62.3,0.0,29.85,SW,229,1.0,11.0,0,0.00,,CLR,0.10,VWS V14.01,2013-07-28 13:30:00,
2013-07-28 09:32:00,61.7,0.0,29.85,WSW,246,4.0,11.0,0,0.00,,CLR,0.10,VWS V14.01,2013-07-28 13:32:00,
2013-07-28 09:37:00,62.2,0.0,29.85,West,265,4.0,11.0,0,0.00,,CLR,0.10,VWS V14.01,2013-07-28 13:37:00,
2013-07-28 09:40:00,62.4,0.0,29.85,West,267,2.0,12.0,0,0.00,,CLR,0.10,VWS V14.01,2013-07-28 13:40:00,
2013-07-28 09:42:00,62.7,0.0,29.85,West,275,1.0,10.0,0,0.00,,CLR,0.10,VWS V14.01,2013-07-28 13:42:00,
2013-07-28 09:47:00,62.4,0.0,29.85,SW,216,2.0,12.0,0,0.00,,CLR,0.10,VWS V14.01,2013-07-28 13:47:00,
2013-07-28 09:50:00,63.2,0.0,29.84,WSW,240,3.0,10.0,0,0.00,,CLR,0.10,VWS V14.01,2013-07-28 13:50:00,
2013-07-28 09:52:00,62.5,0.0,29.85,West,265,4.0,7.0,0,0.00,,CLR,0.10,VWS V14.01,2013-07-28 13:52:00,
2013-07-28 09:57:00,63.2,0.0,29.84,WSW,252,4.0,10.0,0,0.00,,CLR,0.10,VWS V14.01,2013-07-28 13:57:00,
2013-07-28 10:00:00,63.7,0.0,29.85,WSW,252,4.0,10.0,0,0.00,,CLR,0.10,VWS V14.01,2013-07-28 14:00:00,
2013-07-28 10:02:00,63.3,0.0,29.84,SSW,205,5.0,10.0,0,0.00,,CLR,0.10,VWS V14.01,2013-07-28 14:02:00,
2013-07-28 10:07:00,63.6,0.0,29.85,SSW,206,4.0,10.0,0,0.00,,CLR,0.10,VWS V14.01,2013-07-28 14:07:00,
2013-07-28 10:10:00,64.4,0.0,29.85,SW,234,7.0,14.0,0,0.00,,CLR,0.10,VWS V14.01,2013-07-28 14:10:00,
2013-07-28 10:12:00,64.1,0.0,29.85,SSW,211,4.0,9.0,0,0.00,,CLR,0.10,VWS V14.01,2013-07-28 14:12:00,
2013-07-28 10:17:00,64.4,0.0,29.85,West,260,5.0,14.0,0,0.00,,CLR,0.10,VWS V14.01,2013-07-28 14:17:00,
2013-07-28 10:20:00,65.2,0.0,29.84,WSW,247,3.0,11.0,0,0.00,,CLR,0.10,VWS V14.01,2013-07-28 14:20:00,
2013-07-28 10:22:00,64.6,0.0,29.84,West,268,5.0,10.0,0,0.00,,CLR,0.10,VWS V14.01,2013-07-28 14:22:00,
2013-07-28 10:27:00,65.0,0.0,29.84,SW,234,8.0,11.0,0,0.00,,CLR,0.10,VWS V14.01,2013-07-28 14:27:00,
2013-07-28 10:30:00,65.7,-11.7,29.84,WSW,244,6.0,14.0,3,0.00,,,0.10,VWS V14.01,2013-07-28 14:30:00,
2013-07-28 10:32:00,65.2,-12.0,29.84,SW,233,10.0,14.0,2,0.00,,FEW012,0.10,VWS V14.01,2013-07-28 14:32:00,
2013-07-28 10:37:00,65.6,-11.7,29.84,WSW,238,1.0,14.0,4,0.00,,FEW012,0.10,VWS V14.01,2013-07-28 14:37:00,
2013-07-28 10:40:00,65.7,9.8,29.84,WSW,256,9.0,11.0,11,0.00,,CLR,0.10,VWS V14.01,2013-07-28 14:40:00,
2013-07-28 10:42:00,66.0,0.2,29.84,SW,235,6.0,11.0,7,0.00,,FEW012,0.10,VWS V14.01,2013-07-28 14:42:00,
2013-07-28 10:47:00,65.7,9.8,29.84,West,267,5.0,11.0,11,0.00,,FEW012,0.10,VWS V14.01,2013-07-28 14:47:00,
2013-07-28 10:50:00,64.4,22.5,29.84,West,279,7.0,19.0,20,0.00,,CLR,0.10,VWS V14.01,2013-07-28 14:50:00,
2013-07-28 10:52:00,65.3,11.4,29.84,WNW,282,12.0,14.0,12,0.00,,FEW012,0.10,VWS V14.01,2013-07-28 14:52:00,
2013-07-28 10:57:00,64.4,23.6,29.84,West,269,8.0,19.0,21,0.00,,FEW012,0.10,VWS V14.01,2013-07-28 14:57:00,
2013-07-28 11:00:00,66.1,23.9,29.84,West,261,6.0,15.0,20,0.00,,,0.10,VWS V14.01,2013-07-28 15:00:00,
2013-07-28 11:02:00,64.8,27.2,29.84,West,261,6.0,15.0,24,0.00,,BKN041,0.10,VWS V14.01,2013-07-28 15:02:00,
2013-07-28 11:07:00,66.1,23.9,29.84,WSW,250,7.0,15.0,20,0.00,,BKN041,0.10,VWS V14.01,2013-07-28 15:07:00,
2013-07-28 11:10:00,67.0,43.8,29.84,West,273,2.0,17.0,43,0.00,,CLR,0.10,VWS V14.01,2013-07-28 15:10:00,
2013-07-28 11:12:00,66.3,45.5,29.84,WSW,258,9.0,17.0,47,0.00,,BKN041,0.10,VWS V14.01,2013-07-28 15:12:00,
2013-07-28 11:17:00,67.0,46.7,29.84,West,271,5.0,17.0,48,0.00,,BKN041,0.10,VWS V14.01,2013-07-28 15:17:00,
2013-07-28 11:20:00,66.7,50.5,29.83,WSW,244,15.0,18.0,56,0.00,,,0.10,VWS V14.01,2013-07-28 15:20:00,
2013-07-28 11:22:00,66.6,50.0,29.83,SW,224,4.0,12.0,55,0.00,,BKN041,0.10,VWS V14.01,2013-07-28 15:22:00,
2013-07-28 11:27:00,66.9,50.7,29.83,WSW,242,7.0,18.0,56,0.00,,BKN041,0.10,VWS V14.01,2013-07-28 15:27:00,
2013-07-28 11:30:00,66.9,52.1,29.83,WSW,246,16.0,18.0,59,0.00,,CLR,0.10,VWS V14.01,2013-07-28 15:30:00,
2013-07-28 11:32:00,66.1,50.9,29.83,West,277,17.0,18.0,58,0.00,,FEW016,0.10,VWS V14.01,2013-07-28 15:32:00,
2013-07-28 11:37:00,66.8,52.0,29.83,West,268,13.0,18.0,59,0.00,,FEW016,0.10,VWS V14.01,2013-07-28 15:37:00,
2013-07-28 11:40:00,68.1,52.8,29.83,WSW,241,4.0,16.0,58,0.00,,CLR,0.10,VWS V14.01,2013-07-28 15:40:00,
2013-07-28 11:42:00,67.7,52.9,29.83,West,269,4.0,16.0,59,0.00,,FEW016,0.10,VWS V14.01,2013-07-28 15:42:00,
2013-07-28 11:47:00,68.0,52.7,29.83,SW,221,3.0,16.0,58,0.00,,FEW016,0.10,VWS V14.01,2013-07-28 15:47:00,
2013-07-28 11:50:00,67.8,53.9,29.83,WNW,287,8.0,16.0,61,0.00,,CLR,0.10,VWS V14.01,2013-07-28 15:50:00,
2013-07-28 11:52:00,67.8,55.2,29.83,WSW,254,6.0,15.0,64,0.00,,FEW016,0.10,VWS V14.01,2013-07-28 15:52:00,
2013-07-28 11:57:00,67.9,54.4,29.83,West,277,6.0,16.0,62,0.00,,FEW016,0.10,VWS V14.01,2013-07-28 15:57:00,
2013-07-28 12:00:00,68.3,55.7,29.83,WNW,288,9.0,17.0,64,0.00,,,0.10,VWS V14.01,2013-07-28 16:00:00,
2013-07-28 12:02:00,67.3,52.5,29.83,WNW,284,6.0,10.0,59,0.00,,FEW016,0.10,VWS V14.01,2013-07-28 16:02:00,
2013-07-28 12:08:00,68.3,55.7,29.83,West,275,13.0,17.0,64,0.00,,FEW016,0.10,VWS V14.01,2013-07-28 16:08:00,
2013-07-28 12:10:00,69.0,56.3,29.83,WSW,245,3.0,14.0,64,0.00,,CLR,0.10,VWS V14.01,2013-07-28 16:10:00,
2013-07-28 12:12:00,68.6,55.5,29.83,WNW,283,11.0,13.0,63,0.00,,FEW016,0.10,VWS V14.01,2013-07-28 16:12:00,
2013-07-28 12:18:00,69.0,56.3,29.83,WNW,288,8.0,14.0,64,0.00,,FEW016,0.10,VWS V14.01,2013-07-28 16:18:00,
2013-07-28 12:20:00,68.4,55.8,29.83,West,267,12.0,17.0,64,0.00,,CLR,0.10,VWS V14.01,2013-07-28 16:20:00,
2013-07-28 12:22:00,69.0,56.3,29.83,SSW,194,5.0,17.0,64,0.00,,FEW016,0.10,VWS V14.01,2013-07-28 16:22:00,
2013-07-28 12:27:00,68.4,55.8,29.83,WNW,292,7.0,17.0,64,0.00,,FEW016,0.10,VWS V14.01,2013-07-28 16:27:00,
2013-07-28 12:30:00,68.9,56.7,29.83,West,277,13.0,17.0,65,0.00,,CLR,0.10,VWS V14.01,2013-07-28 16:30:00,
2013-07-28 12:33:00,68.4,55.8,29.83,WNW,290,7.0,13.0,64,0.00,,SCT043,0.10,VWS V14.01,2013-07-28 16:33:00,
2013-07-28 12:38:00,68.8,56.1,29.83,SW,234,13.0,17.0,64,0.00,,SCT043,0.10,VWS V14.01,2013-07-28 16:38:00,
2013-07-28 12:40:00,69.3,56.2,29.83,WSW,248,9.0,19.0,63,0.00,,CLR,0.10,VWS V14.01,2013-07-28 16:40:00,
2013-07-28 12:43:00,68.8,55.7,29.83,SSW,200,13.0,19.0,63,0.00,,SCT043,0.10,VWS V14.01,2013-07-28 16:43:00,
2013-07-28 12:48:00,69.3,56.2,29.83,WSW,248,12.0,19.0,63,0.00,,SCT043,0.10,VWS V14.01,2013-07-28 16:48:00,
2013-07-28 12:50:00,69.5,55.9,29.83,SSE,155,9.0,18.0,62,0.00,,CLR,0.10,VWS V14.01,2013-07-28 16:50:00,
2013-07-28 12:53:00,69.0,55.5,29.83,West,259,9.0,18.0,62,0.00,,SCT043,0.10,VWS V14.01,2013-07-28 16:53:00,
2013-07-28 12:58:00,69.5,55.9,29.83,SSW,201,9.0,18.0,62,0.00,,SCT043,0.10,VWS V14.01,2013-07-28 16:58:00,
2013-07-28 13:00:00,69.1,56.0,29.84,WSW,238,13.0,14.0,63,0.00,,CLR,0.10,VWS V14.01,2013-07-28 17:00:00,
2013-07-28 13:03:00,69.5,55.9,29.83,West,267,7.0,14.0,62,0.00,,SCT043,0.10,VWS V14.01,2013-07-28 17:03:00,
2013-07-28 13:08:00,69.1,56.0,29.84,WSW,238,13.0,14.0,63,0.00,,SCT043,0.10,VWS V14.01,2013-07-28 17:08:00,
2013-07-28 13:10:00,70.0,56.0,29.84,SW,229,5.0,15.0,61,0.00,,CLR,0.10,VWS V14.01,2013-07-28 17:10:00,
2013-07-28 13:13:00,69.4,56.3,29.84,WNW,290,6.0,15.0,63,0.00,,SCT043,0.10,VWS V14.01,2013-07-28 17:13:00,
2013-07-28 13:18:00,70.0,56.0,29.84,SW,229,5.0,15.0,61,0.00,,SCT043,0.10,VWS V14.01,2013-07-28 17:18:00,
2013-07-28 13:20:00,70.0,56.8,29.84,West,263,8.0,15.0,63,0.00,,CLR,0.10,VWS V14.01,2013-07-28 17:20:00,
2013-07-28 13:23:00,69.7,56.1,29.84,WSW,246,6.0,13.0,62,0.00,,SCT043,0.10,VWS V14.01,2013-07-28 17:23:00,
2013-07-28 13:28:00,70.0,56.8,29.84,West,263,8.0,15.0,63,0.00,,SCT043,0.10,VWS V14.01,2013-07-28 17:28:00,
2013-07-28 13:30:00,70.6,55.6,29.83,SSW,200,4.0,14.0,59,0.00,,,0.10,VWS V14.01,2013-07-28 17:30:00,
2013-07-28 13:33:00,70.3,56.7,29.84,West,266,10.0,14.0,62,0.00,,FEW042,0.10,VWS V14.01,2013-07-28 17:33:00,
2013-07-28 13:38:00,70.6,55.6,29.83,SSW,200,4.0,14.0,59,0.00,,FEW042,0.10,VWS V14.01,2013-07-28 17:38:00,
2013-07-28 13:40:00,70.9,55.9,29.83,West,260,15.0,16.0,59,0.00,,,0.10,VWS V14.01,2013-07-28 17:40:00,
2013-07-28 13:43:00,70.3,53.9,29.83,WSW,238,6.0,12.0,56,0.00,,FEW042,0.10,VWS V14.01,2013-07-28 17:43:00,
2013-07-28 13:48:00,70.9,55.9,29.83,West,260,15.0,16.0,59,0.00,,FEW042,0.10,VWS V14.01,2013-07-28 17:48:00,
2013-07-28 13:50:00,71.5,56.0,29.83,WSW,250,6.0,15.0,58,0.00,,,0.10,VWS V14.01,2013-07-28 17:50:00,
2013-07-28 13:53:00,70.8,55.3,29.83,South,179,8.0,15.0,58,0.00,,FEW042,0.10,VWS V14.01,2013-07-28 17:53:00,
2013-07-28 13:58:00,71.5,56.0,29.83,WSW,250,6.0,15.0,58,0.00,,FEW042,0.10,VWS V14.01,2013-07-28 17:58:00,
2013-07-28 14:00:00,70.5,55.5,29.83,WSW,252,5.0,19.0,59,0.00,,CLR,0.10,VWS V14.01,2013-07-28 18:00:00,
2013-07-28 14:03:00,71.2,55.7,29.83,WSW,250,12.0,15.0,58,0.00,,FEW042,0.10,VWS V14.01,2013-07-28 18:03:00,
2013-07-28 14:08:00,70.5,55.5,29.83,WSW,252,5.0,19.0,59,0.00,,FEW042,0.10,VWS V14.01,2013-07-28 18:08:00,
2013-07-28 14:10:00,70.1,55.1,29.83,WSW,252,5.0,17.0,59,0.00,,,0.10,VWS V14.01,2013-07-28 18:10:00,
2013-07-28 14:13:00,70.9,55.9,29.83,WNW,303,7.0,17.0,59,0.00,,FEW042,0.10,VWS V14.01,2013-07-28 18:13:00,
2013-07-28 14:18:00,70.1,55.1,29.83,WSW,252,5.0,17.0,59,0.00,,FEW042,0.10,VWS V14.01,2013-07-28 18:18:00,
2013-07-28 14:20:00,69.8,55.8,29.84,WSW,257,5.0,18.0,61,0.00,,CLR,0.10,VWS V14.01,2013-07-28 18:20:00,
2013-07-28 14:23:00,69.5,55.0,29.84,SW,232,6.0,18.0,60,0.00,,FEW042,0.10,VWS V14.01,2013-07-28 18:23:00,
2013-07-28 14:28:00,69.8,55.8,29.84,West,265,4.0,18.0,61,0.00,,FEW042,0.10,VWS V14.01,2013-07-28 18:28:00,
2013-07-28 14:30:00,70.4,56.3,29.83,WNW,291,10.0,19.0,61,0.00,,CLR,0.10,VWS V14.01,2013-07-28 18:30:00,
2013-07-28 14:33:00,70.4,55.9,29.84,WNW,298,14.0,19.0,60,0.00,,SCT055,0.10,VWS V14.01,2013-07-28 18:33:00,
2013-07-28 14:38:00,70.4,56.3,29.83,WNW,291,10.0,19.0,61,0.00,,SCT055,0.10,VWS V14.01,2013-07-28 18:38:00,
2013-07-28 14:40:00,71.2,56.6,29.83,West,259,3.0,19.0,60,0.00,,CLR,0.10,VWS V14.01,2013-07-28 18:40:00,
2013-07-28 14:43:00,70.8,56.7,29.83,WSW,251,13.0,19.0,61,0.00,,SCT055,0.10,VWS V14.01,2013-07-28 18:43:00,
2013-07-28 14:48:00,71.2,56.6,29.83,West,277,3.0,4.0,60,0.00,,SCT055,0.10,VWS V14.01,2013-07-28 18:48:00,
2013-07-28 14:50:00,71.5,55.0,29.82,WSW,256,11.0,16.0,56,0.00,,CLR,0.10,VWS V14.01,2013-07-28 18:50:00,
2013-07-28 14:53:00,71.9,56.8,29.82,West,275,12.0,16.0,59,0.00,,SCT055,0.10,VWS V14.01,2013-07-28 18:53:00,
2013-07-28 14:58:00,71.5,55.0,29.82,WSW,256,11.0,16.0,56,0.00,,SCT055,0.10,VWS V14.01,2013-07-28 18:58:00,
2013-07-28 15:00:00,70.9,55.9,29.82,WNW,299,13.0,15.0,59,0.00,,CLR,0.10,VWS V14.01,2013-07-28 19:00:00,
2013-07-28 15:03:00,71.4,54.9,29.82,SW,236,6.0,15.0,56,0.00,,SCT055,0.10,VWS V14.01,2013-07-28 19:03:00,
2013-07-28 15:08:00,70.9,55.9,29.82,WNW,290,17.0,17.0,59,0.00,,SCT055,0.10,VWS V14.01,2013-07-28 19:08:00,
2013-07-28 15:10:00,71.8,57.2,29.82,West,267,10.0,17.0,60,0.00,,CLR,0.10,VWS V14.01,2013-07-28 19:10:00,
2013-07-28 15:13:00,71.0,56.4,29.82,West,262,4.0,17.0,60,0.00,,SCT055,0.10,VWS V14.01,2013-07-28 19:13:00,
2013-07-28 15:18:00,71.8,57.2,29.82,WSW,252,10.0,11.0,60,0.00,,SCT055,0.10,VWS V14.01,2013-07-28 19:18:00,
2013-07-28 15:20:00,70.4,55.4,29.82,WSW,250,12.0,21.0,59,0.00,,,0.10,VWS V14.01,2013-07-28 19:20:00,
2013-07-28 15:23:00,71.4,54.4,29.82,West,268,4.0,21.0,55,0.00,,SCT055,0.10,VWS V14.01,2013-07-28 19:23:00,
2013-07-28 15:28:00,70.4,55.4,29.82,WSW,244,8.0,12.0,59,0.00,,SCT055,0.10,VWS V14.01,2013-07-28 19:28:00,
2013-07-28 15:30:00,70.6,57.0,29.83,West,270,4.0,15.0,62,0.00,,,0.10,VWS V14.01,2013-07-28 19:30:00,
2013-07-28 15:33:00,69.9,54.9,29.82,WSW,249,6.0,15.0,59,0.00,,SCT050,0.10,VWS V14.01,2013-07-28 19:33:00,
2013-07-28 15:38:00,70.7,57.1,29.83,West,264,7.0,7.0,62,0.00,,SCT050,0.10,VWS V14.01,2013-07-28 19:38:00,
2013-07-28 15:40:00,72.0,57.4,29.83,WSW,241,4.0,19.0,60,0.00,,,0.10,VWS V14.01,2013-07-28 19:40:00,
2013-07-28 15:43:00,71.7,56.6,29.83,West,277,4.0,16.0,59,0.00,,SCT050,0.10,VWS V14.01,2013-07-28 19:43:00,
2013-07-28 15:48:00,72.0,57.4,29.83,WNW,285,3.0,4.0,60,0.00,,SCT050,0.10,VWS V14.01,2013-07-28 19:48:00,
2013-07-28 15:50:00,71.2,57.1,29.82,WSW,248,5.0,15.0,61,0.00,,,0.10,VWS V14.01,2013-07-28 19:50:00,
2013-07-28 15:53:00,71.6,56.5,29.82,West,263,15.0,15.0,59,0.00,,SCT050,0.10,VWS V14.01,2013-07-28 19:53:00,
2013-07-28 15:58:00,71.3,57.2,29.82,SW,234,2.0,5.0,61,0.00,,SCT050,0.10,VWS V14.01,2013-07-28 19:58:00,
2013-07-28 16:00:00,70.5,56.4,29.82,SW,221,7.0,14.0,61,0.00,,,0.10,VWS V14.01,2013-07-28 20:00:00,
2013-07-28 16:03:00,71.1,56.5,29.82,SW,231,3.0,14.0,60,0.00,,SCT050,0.10,VWS V14.01,2013-07-28 20:03:00,
2013-07-28 16:08:00,70.5,56.4,29.82,WSW,237,5.0,10.0,61,0.00,,SCT050,0.10,VWS V14.01,2013-07-28 20:08:00,
2013-07-28 16:10:00,71.5,56.4,29.82,WSW,240,7.0,16.0,59,0.00,,,0.10,VWS V14.01,2013-07-28 20:10:00,
2013-07-28 16:13:00,70.5,56.4,29.82,WSW,255,9.0,11.0,61,0.00,,SCT050,0.10,VWS V14.01,2013-07-28 20:13:00,
2013-07-28 16:18:00,71.5,56.4,29.82,West,280,9.0,11.0,59,0.00,,SCT050,0.10,VWS V14.01,2013-07-28 20:18:00,
2013-07-28 16:20:00,71.4,56.8,29.82,WSW,252,10.0,15.0,60,0.00,,CLR,0.10,VWS V14.01,2013-07-28 20:20:00,
2013-07-28 16:23:00,71.4,56.3,29.82,WNW,290,6.0,14.0,59,0.00,,SCT050,0.10,VWS V14.01,2013-07-28 20:23:00,
2013-07-28 16:28:00,71.4,56.8,29.82,NW,317,11.0,13.0,60,0.00,,SCT050,0.10,VWS V14.01,2013-07-28 20:28:00,
2013-07-28 16:30:00,71.2,56.2,29.82,West,265,11.0,13.0,59,0.00,,,0.10,VWS V14.01,2013-07-28 20:30:00,
2013-07-28 16:33:00,71.3,57.2,29.82,WNW,286,7.0,13.0,61,0.00,,BKN060,0.10,VWS V14.01,2013-07-28 20:33:00,
2013-07-28 16:38:00,71.1,56.1,29.82,WSW,248,9.0,11.0,59,0.00,,BKN060,0.10,VWS V14.01,2013-07-28 20:38:00,
2013-07-28 16:40:00,71.3,56.7,29.82,SW,217,5.0,14.0,60,0.00,,CLR,0.10,VWS V14.01,2013-07-28 20:40:00,
2013-07-28 16:43:00,71.5,56.9,29.82,West,266,2.0,14.0,60,0.00,,BKN060,0.10,VWS V14.01,2013-07-28 20:43:00,
2013-07-28 16:48:00,71.3,56.7,29.82,West,263,8.0,10.0,60,0.00,,BKN060,0.10,VWS V14.01,2013-07-28 20:48:00,
2013-07-28 16:50:00,70.3,55.8,29.82,WSW,238,7.0,13.0,60,0.00,,,0.10,VWS V14.01,2013-07-28 20:50:00,
2013-07-28 16:53:00,70.7,57.1,29.82,WNW,296,9.0,13.0,62,0.00,,BKN060,0.10,VWS V14.01,2013-07-28 20:53:00,
2013-07-28 16:58:00,70.3,55.8,29.82,West,266,11.0,11.0,60,0.00,,BKN060,0.10,VWS V14.01,2013-07-28 20:58:00,
2013-07-28 17:00:00,70.2,56.1,29.83,WSW,254,12.0,16.0,61,0.00,,CLR,0.10,VWS V14.01,2013-07-28 21:00:00,
2013-07-28 17:03:00,69.9,55.8,29.82,WSW,248,10.0,12.0,61,0.00,,BKN060,0.10,VWS V14.01,2013-07-28 21:03:00,
2013-07-28 17:09:00,70.3,56.2,29.83,SW,232,10.0,13.0,61,0.00,,BKN060,0.10,VWS V14.01,2013-07-28 21:09:00,
2013-07-28 17:10:00,71.5,57.4,29.83,West,275,9.0,14.0,61,0.00,,CLR,0.10,VWS V14.01,2013-07-28 21:10:00,
2013-07-28 17:14:00,71.1,56.5,29.83,SW,236,2.0,14.0,60,0.00,,BKN060,0.10,VWS V14.01,2013-07-28 21:14:00,
2013-07-28 17:19:00,71.5,56.9,29.83,WNW,282,3.0,10.0,60,0.00,,BKN060,0.10,VWS V14.01,2013-07-28 21:19:00,
2013-07-28 17:20:00,71.4,57.3,29.83,West,279,9.0,16.0,61,0.00,,CLR,0.10,VWS V14.01,2013-07-28 21:20:00,
2013-07-28 17:24:00,71.8,57.6,29.83,WNW,288,7.0,11.0,61,0.00,,BKN060,0.10,VWS V14.01,2013-07-28 21:24:00,
2013-07-28 17:29:00,71.5,57.8,29.83,WSW,256,5.0,10.0,62,0.00,,BKN060,0.10,VWS V14.01,2013-07-28 21:29:00,
2013-07-28 17:30:00,70.3,56.2,29.83,West,264,6.0,17.0,61,0.00,,CLR,0.10,VWS V14.01,2013-07-28 21:30:00,
2013-07-28 17:34:00,71.4,56.8,29.83,West,267,9.0,17.0,60,0.00,,BKN050,0.10,VWS V14.01,2013-07-28 21:34:00,
2013-07-28 17:39:00,70.3,56.7,29.83,West,276,3.0,8.0,62,0.00,,BKN050,0.10,VWS V14.01,2013-07-28 21:39:00,
2013-07-28 17:40:00,71.2,57.5,29.83,West,259,11.0,12.0,62,0.00,,CLR,0.10,VWS V14.01,2013-07-28 21:40:00,
2013-07-28 17:44:00,70.8,57.2,29.83,West,271,6.0,11.0,62,0.00,,BKN050,0.10,VWS V14.01,2013-07-28 21:44:00,
2013-07-28 17:49:00,71.2,57.5,29.83,West,261,2.0,11.0,62,0.00,,BKN050,0.10,VWS V14.01,2013-07-28 21:49:00,
2013-07-28 17:50:00,70.4,56.8,29.83,West,267,6.0,15.0,62,0.00,,CLR,0.10,VWS V14.01,2013-07-28 21:50:00,
2013-07-28 17:54:00,70.5,56.4,29.83,West,263,6.0,15.0,61,0.00,,BKN050,0.10,VWS V14.01,2013-07-28 21:54:00,
2013-07-28 17:59:00,70.5,57.3,29.83,West,266,3.0,6.0,63,0.00,,BKN050,0.10,VWS V14.01,2013-07-28 21:59:00,
2013-07-28 18:00:00,69.8,57.1,29.84,West,265,6.0,10.0,64,0.00,,CLR,0.10,VWS V14.01,2013-07-28 22:00:00,
2013-07-28 18:04:00,70.4,57.2,29.83,WSW,258,3.0,9.0,63,0.00,,BKN050,0.10,VWS V14.01,2013-07-28 22:04:00,
2013-07-28 18:09:00,69.6,56.9,29.84,West,273,2.0,7.0,64,0.00,,BKN050,0.10,VWS V14.01,2013-07-28 22:09:00,
2013-07-28 18:10:00,68.5,56.3,29.84,West,261,5.0,9.0,65,0.00,,CLR,0.10,VWS V14.01,2013-07-28 22:10:00,
2013-07-28 18:14:00,68.9,56.7,29.84,West,271,2.0,7.0,65,0.00,,BKN050,0.10,VWS V14.01,2013-07-28 22:14:00,
2013-07-28 18:19:00,68.4,56.2,29.84,WSW,252,6.0,6.0,65,0.00,,BKN050,0.10,VWS V14.01,2013-07-28 22:19:00,
2013-07-28 18:20:00,68.2,56.0,29.85,WSW,252,4.0,8.0,65,0.00,,CLR,0.10,VWS V14.01,2013-07-28 22:20:00,
2013-07-28 18:24:00,68.3,56.1,29.85,West,261,2.0,8.0,65,0.00,,BKN050,0.10,VWS V14.01,2013-07-28 22:24:00,
2013-07-28 18:29:00,68.2,55.6,29.85,WSW,258,3.0,5.0,64,0.00,,BKN050,0.10,VWS V14.01,2013-07-28 22:29:00,
2013-07-28 18:30:00,68.8,56.1,29.85,West,267,4.0,7.0,64,0.00,,CLR,0.10,VWS V14.01,2013-07-28 22:30:00,
2013-07-28 18:34:00,68.5,55.9,29.85,WNW,290,4.0,7.0,64,0.00,,CLR,0.10,VWS V14.01,2013-07-28 22:34:00,
2013-07-28 18:39:00,68.9,56.2,29.85,West,263,3.0,6.0,64,0.00,,CLR,0.10,VWS V14.01,2013-07-28 22:39:00,
2013-07-28 18:40:00,69.2,56.5,29.85,West,270,6.0,15.0,64,0.00,,CLR,0.10,VWS V14.01,2013-07-28 22:40:00,
2013-07-28 18:44:00,69.4,56.7,29.85,West,276,5.0,10.0,64,0.00,,CLR,0.10,VWS V14.01,2013-07-28 22:44:00,
2013-07-28 18:50:00,69.2,56.5,29.85,West,270,6.0,12.0,64,0.00,,CLR,0.10,VWS V14.01,2013-07-28 22:50:00,
2013-07-28 19:00:00,67.3,54.3,29.86,WNW,292,7.0,12.0,63,0.00,,CLR,0.10,VWS V14.01,2013-07-28 23:00:00,
2013-07-28 19:10:00,67.3,54.3,29.86,WNW,292,7.0,12.0,63,0.00,,CLR,0.10,VWS V14.01,2013-07-28 23:10:00,
2013-07-28 19:20:00,66.4,53.0,29.87,WNW,292,7.0,13.0,62,0.00,,CLR,0.10,VWS V14.01,2013-07-28 23:20:00,
2013-07-28 19:30:00,66.4,53.9,29.87,West,270,7.0,15.0,64,0.00,,CLR,0.10,VWS V14.01,2013-07-28 23:30:00,
2013-07-28 19:40:00,66.6,54.1,29.87,WNW,292,5.0,12.0,64,0.00,,CLR,0.10,VWS V14.01,2013-07-28 23:40:00,
2013-07-28 19:50:00,66.7,54.2,29.87,West,270,5.0,11.0,64,0.00,,,0.10,VWS V14.01,2013-07-28 23:50:00,
2013-07-28 20:00:00,66.3,53.8,29.88,West,270,5.0,11.0,64,0.00,,CLR,0.10,VWS V14.01,2013-07-29 00:00:00,
2013-07-28 20:10:00,64.7,51.8,29.88,WNW,292,6.0,13.0,63,0.00,,,0.10,VWS V14.01,2013-07-29 00:10:00,
2013-07-28 20:20:00,64.3,51.9,29.89,WNW,292,6.0,12.0,64,0.00,,,0.10,VWS V14.01,2013-07-29 00:20:00,
2013-07-28 20:30:00,63.3,50.5,29.89,WNW,292,5.0,11.0,63,0.00,,,0.10,VWS V14.01,2013-07-29 00:30:00,
2013-07-28 20:40:00,62.7,49.5,29.89,WNW,292,5.0,10.0,62,0.00,,CLR,0.10,VWS V14.01,2013-07-29 00:40:00,
2013-07-28 20:50:00,62.0,47.5,29.90,West,270,3.0,6.0,59,0.00,,CLR,0.10,VWS V14.01,2013-07-29 00:50:00,
2013-07-28 21:00:00,61.9,47.0,29.91,West,270,4.0,7.0,58,0.00,,CLR,0.10,VWS V14.01,2013-07-29 01:00:00,
2013-07-28 21:10:00,60.6,39.2,29.91,West,270,3.0,5.0,45,0.00,,CLR,0.10,VWS V14.01,2013-07-29 01:10:00,
2013-07-28 21:20:00,60.4,34.0,29.92,WNW,292,5.0,12.0,37,0.00,,CLR,0.10,VWS V14.01,2013-07-29 01:20:00,
2013-07-28 21:30:00,60.5,32.7,29.93,WNW,292,6.0,13.0,35,0.00,,CLR,0.10,VWS V14.01,2013-07-29 01:30:00,
2013-07-28 21:40:00,60.4,29.6,29.93,WNW,292,7.0,13.0,31,0.00,,CLR,0.10,VWS V14.01,2013-07-29 01:40:00,
2013-07-28 21:50:00,60.3,25.3,29.93,WNW,292,7.0,12.0,26,0.00,,CLR,0.10,VWS V14.01,2013-07-29 01:50:00,
2013-07-28 22:00:00,60.2,23.3,29.94,WNW,292,6.0,12.0,24,0.00,,CLR,0.10,VWS V14.01,2013-07-29 02:00:00,
2013-07-28 22:10:00,59.9,17.6,29.94,WNW,292,5.0,9.0,19,0.00,,,0.10,VWS V14.01,2013-07-29 02:10:00,
2013-07-28 22:20:00,59.3,10.1,29.94,WNW,292,4.0,7.0,14,0.00,,,0.10,VWS V14.01,2013-07-29 02:20:00,
2013-07-28 22:30:00,58.8,-8.3,29.95,WNW,292,3.0,7.0,6,0.00,,CLR,0.10,VWS V14.01,2013-07-29 02:30:00,
2013-07-28 22:50:00,58.0,0.0,29.95,WNW,298,4.0,6.0,0,0.00,,CLR,0.10,VWS V14.01,2013-07-29 02:50:00,
2013-07-28 22:54:00,58.8,-8.3,29.95,WNW,292,3.0,7.0,6,0.00,,CLR,0.10,VWS V14.01,2013-07-29 02:54:00,
2013-07-28 22:59:00,57.9,0.0,29.95,WNW,298,2.0,5.0,0,0.00,,CLR,0.10,VWS V14.01,2013-07-29 02:59:00,
2013-07-28 23:00:00,57.4,0.0,29.95,WNW,298,1.0,5.0,0,0.00,,,0.10,VWS V14.01,2013-07-29 03:00:00,
2013-07-28 23:04:00,57.6,0.0,29.95,WNW,298,3.0,5.0,0,0.00,,CLR,0.10,VWS V14.01,2013-07-29 03:04:00,
2013-07-28 23:09:00,57.3,0.0,29.95,WNW,298,1.0,4.0,0,0.00,,CLR,0.10,VWS V14.01,2013-07-29 03:09:00,
2013-07-28 23:10:00,57.1,0.0,29.95,WNW,298,0.0,4.0,0,0.00,,,0.10,VWS V14.01,2013-07-29 03:10:00,
2013-07-28 23:15:00,57.2,0.0,29.95,WNW,298,2.0,4.0,0,0.00,,CLR,0.10,VWS V14.01,2013-07-29 03:15:00,
2013-07-28 23:20:00,57.1,0.0,29.95,WNW,298,1.0,3.0,0,0.00,,CLR,0.10,VWS V14.01,2013-07-29 03:20:00,
2013-07-28 23:25:00,57.1,0.0,29.95,WNW,298,1.0,3.0,0,0.00,,CLR,0.10,VWS V14.01,2013-07-29 03:25:00,
2013-07-28 23:30:00,56.6,0.0,29.95,WNW,298,2.0,2.0,0,0.00,,CLR,0.10,VWS V14.01,2013-07-29 03:30:00,
2013-07-28 23:35:00,56.0,0.0,29.95,WNW,298,3.0,4.0,0,0.00,,CLR,0.10,VWS V14.01,2013-07-29 03:35:00,
2013-07-28 23:40:00,55.8,0.0,29.95,WNW,298,5.0,6.0,0,0.00,,CLR,0.10,VWS V14.01,2013-07-29 03:40:00,
2013-07-28 23:45:00,55.7,0.0,29.95,WNW,298,3.0,6.0,0,0.00,,CLR,0.10,VWS V14.01,2013-07-29 03:45:00,
2013-07-28 23:50:00,55.6,0.0,29.95,WNW,298,2.0,6.0,0,0.00,,CLR,0.10,VWS V14.01,2013-07-29 03:50:00,
2013-07-28 23:55:00,55.7,0.0,29.95,WNW,298,2.0,6.0,0,0.00,,CLR,0.10,VWS V14.01,2013-07-29 03:55:00,